Torna al catalogo

COSMOS 1618

AttivoNavigazionePO
NORAD 15470·PAYLOAD·🇷🇺 Russia

Lanciato Jan 15, 1985 da Plesetsk Cosmodrome

Loading…

Prossimi Passaggi (prossime 24 ore)

TLE

AggiornatoSource: Space-Track

Epoca: Sep 14, 2026, 08:24 UTC

1 15470U 85003B   26257.35040203  .00000000  00000-0 -57067-4 0  9992
2 15470  82.6048  36.3249 0005316  39.1915 348.8126 12.62994998920638

Traccia COSMOS 1618 in tempo reale con AllMySat

Download on the App Store